Вернуться в каталог

STARLINK-4180

АктивенСвязьVLEO
NORAD 53278·PAYLOAD·🇺🇸 United States

Запущен Jul 24, 2022 с Cape Canaveral Space Force Station

Loading…

Ближайшие Пролёты (ближайшие 24 часа)

TLE

СвежийSource: CelesTrak SupGP

Эпоха: Sep 15, 2026, 01:57 UTC

1 53278C 22086AN  26258.08173611 -.00032874  00000+0 -10573-2 0  2584
2 53278  53.1587  41.0966 0001194  82.4453 123.6822 15.31713656    16

Отслеживайте STARLINK-4180 в реальном времени с AllMySat

Download on the App Store